GW5369 Weather Reports


time (UTC)temp
F
wind
direction
speed
knots
gust
knots
rain 1hr
in
rain 24hr
in
rain mn
in
humidity
%
barometer
mb
20260503190503 69 5 1.7 8.7 0.00 0.07 0.00 44 1018.1
20260503190009 69 342 1.7 7.8 0.00 0.07 0.00 41 1018.2
20260503185504 69 347 1.7 8.7 0.00 0.07 0.00 41 1018.2
20260503185001 68 352 1.7 8.7 0.00 0.08 0.00 42 1018.2
20260503184506 68 318 1.7 10.4 0.00 0.08 0.00 43 1018.2
20260503184006 67 335 3.5 10.4 0.00 0.09 0.00 43 1018.4
20260503183503 68 335 2.6 8.7 0.00 0.09 0.00 43 1018.5
20260503183011 68 333 2.6 8.7 0.00 0.09 0.00 44 1018.6
20260503182503 67 204 3.5 7.0 0.00 0.10 0.00 43 1018.5
20260503182003 67 26 1.7 7.0 0.00 0.10 0.00 42 1018.5
20260503181509 67 284 2.6 7.0 0.00 0.11 0.00 43 1018.7
20260503181004 67 191 1.7 8.7 0.00 0.11 0.00 44 1018.7
20260503180505 67 209 2.6 8.7 0.00 0.11 0.00 44 1018.7
20260503180018 67 285 1.7 6.1 0.00 0.11 0.00 42 1018.8
20260503175504 66 186 0.9 8.7 0.00 0.11 0.00 45 1018.9
20260503175003 66 350 2.6 8.7 0.00 0.11 0.00 44 1018.9
20260503174513 67 317 0.9 8.7 0.00 0.11 0.00 44 1018.9
20260503174004 66 195 3.5 8.7 0.00 0.11 0.00 43 1018.9
20260503173501 66 34 3.5 8.7 0.00 0.11 0.00 46 1018.9
20260503173020 66 352 3.5 7.8 0.00 0.11 0.00 43 1018.9
20260503172504 66 11 1.7 8.7 0.00 0.11 0.00 44 1018.9
20260503172003 66 48 3.5 9.6 0.00 0.12 0.00 46 1018.8
20260503171521 66 269 3.5 9.6 0.00 0.12 0.00 45 1018.8
20260503171005 66 338 1.7 6.1 0.00 0.12 0.00 44 1018.9
20260503170505 65 311 1.7 8.7 0.00 0.12 0.00 45 1018.9
20260503151005 62 33 3.5 8.7 0.00 0.33 0.00 45 1020.0
20260503150507 62 283 2.6 8.7 0.00 0.34 0.00 47 1019.9
20260503131012 54 69 1.7 8.7 0.00 0.43 0.00 74 1019.4
20260503130505 54 5 1.7 7.8 0.00 0.43 0.00 75 1019.4